SCP
-0 -0 -0 -0 -0 -0 0 0 0 0 0 0 0 0 0 0 0 -0 0 0 0 0 0 0 0 0 0 0 0 0 0 0 0 0 0 0 0 0 0 0 0 0 0 0
-0 -0 -0 -0 -0 -0 -0 0 0 0 0 0 0 0 0 0 0 -0 0 0 0 0 0 0 0 0 0 0 0 0 0 0 0 0 0 0 0 0 0 0 0 0 0 0
-0 -0 -0 -0 -0 -0 0 0 0 0 0 0 0 0 0 0 0 0 0 0 0 0 0 0 0 0 0 0 0 0 0 0 0 0 0 0 0 0 0 0 0 0 0 0
-0 -0 -0 -0 -0 -0 0 0 0 0 0 0 0 0 0 0 0 0 0 0 0 0 0 0 0 0 0 0 0 0 0 0 0 0 0 0 0 0 0 0 0 0 0 0
-0 -0 -0 -0 -0 0 0 0 0 0 0 0 0 0 0 0 0 0 0 0 0 0 0 0 0 0 0 0 0 0 0 0 0 0 0 0 0 0 0 0 0 0 0 0
0 0 -0 -0 -0 0 0 0 0 0 0 0 0 0 0 0 0 0 0 0 0 0 0 0 0 0 -0 0 0 0 0 0 0 0 0 0 0 0 0 0 0 0 0 0
0 0 0 0 -0 0 -0 0 0 0 0 0 0 0 0 0 0 0 0 0 0 0 0 -0 0 0 0 0 0 0 0 0 0 0 0 0 0 0 0 0 0 0 0 0
0 0 0 0 0 0 -0 0 0 0 0 0 0 0 0 0 0 0 0 0 0 0 0 0 0 0 0 0 0 0 0 0 0 0 0 0 0 0 0 0 0 0 0 0
0 0 0 0 0 0 0 0 -0 0 0 0 0 0 0 0 0 0 0 0 0 0 0 0 0 0 0 0 0 0 0 0 0 0 0 0 0 0 0 0 0 0 0 0
0 0 0 0 0 0 0 0 0 0 0 0 0 0 0 0 0 0 0 0 0 0 0 0 0 0 0 0 0 0 0 0 0 0 0 0 0 0 0 1 1 0 0 0
0 0 0 0 0 0 0 0 0 0 0 0 0 0 0 0 0 0 0 0 0 0 0 0 0 0 0 0 0 0 0 0 0 0 0 0 0 0 1 1 1 0 0 0
0 0 0 0 0 0 0 0 0 0 0 0 0 0 0 0 0 0 0 0 0 0 0 0 0 0 0 0 0 0 0 0 0 0 0 0 0 0 1 1 1 0 0 0
0 0 0 0 0 0 0 0 0 0 0 0 0 0 0 0 -0 -0 0 0 0 0 0 0 0 0 0 0 0 0 0 0 0 0 0 0 0 0 0 0 1 1 0 0
0 0 0 0 0 0 0 0 0 0 0 0 0 0 0 0 0 0 0 0 0 0 0 0 0 0 0 0 0 0 0 0 0 0 0 0 0 0 0 0 0 0 1 0
0 0 0 0 0 0 0 0 0 0 0 0 0 0 0 0 0 0 0 0 0 0 0 0 0 0 0 0 0 0 0 0 0 0 0 0 0 0 0 0 0 0 0 0
0 0 0 0 0 0 0 0 0 0 0 0 0 0 0 0 0 0 0 0 0 0 0 0 0 0 0 0 0 0 0 0 0 0 0 0 -0 -0 -0 0 0 0 0 0
0 0 0 0 0 0 0 0 0 0 0 0 0 0 0 0 0 0 0 0 0 0 0 0 0 0 0 0 0 0 0 0 0 0 0 0 0 0 0 0 0 0 0 0
0 0 0 0 0 0 0 0 0 0 0 0 0 0 0 0 0 0 0 0 0 0 0 0 0 0 0 0 0 0 0 -0 0 0 0 0 0 0 -0 0 0 0 0 0
0 0 0 0 0 0 0 0 0 0 0 0 0 0 0 0 0 0 0 0 0 0 0 0 0 0 0 0 0 0 0 0 0 0 0 0 0 0 0 0 0 0 0 0
0 0 0 0 0 0 0 0 0 0 0 0 0 0 0 0 0 0 0 0 0 0 0 0 0 0 0 0 0 0 0 0 -0 0 0 0 0 0 0 0 0 0 0 0
0 0 0 0 0 0 0 0 0 0 0 0 0 0 0 0 0 0 0 0 0 0 0 0 0 0 0 0 0 0 0 0 -0 -0 0 0 0 0 0 0 0 0 0 0
0 0 0 0 0 0 0 0 0 0 0 0 0 0 0 0 0 0 0 0 0 0 0 0 0 0 0 0 0 0 0 0 0 0 -0 0 0 0 0 0 0 0 0 0
0 0 0 0 0 0 0 0 0 0 0 0 0 0 0 0 0 0 0 0 0 0 0 0 0 0 0 0 0 0 0 0 0 0 0 0 0 0 0 0 0 0 0 0
0 0 0 0 0 0 0 0 0 0 0 0 0 0 0 0 0 0 0 0 0 0 0 0 0 0 0 0 0 0 -0 0 0 0 0 0 0 0 0 0 0 0 0 0
0 0 0 0 0 0 0 0 0 0 0 0 0 0 0 0 0 0 0 0 0 0 0 0 0 0 0 0 0 0 0 0 0 0 0 0 0 0 0 0 0 0 0 0
0 0 0 0 0 0 0 0 0 0 0 0 0 0 0 0 0 0 0 0 0 0 0 0 0 0 0 0 0 0 -0 0 0 0 0 0 0 0 0 0 0 0 0 0
0 0 0 0 0 0 0 0 0 0 0 0 0 0 0 0 0 0 0 0 0 0 0 0 0 0 -0 -0 -0 -0 -0 -0 0 0 0 0 0 0 0 0 0 0 0 0
Wind_Speed_500mb
51 51 51 47 36 22 10 8 4 16 21 10 6 5 10 11 11 13 3 2 8 7 11 5 5 6 5 18 10 10 3 3 10 12 1 9 15 27 27 18 20 6 9 17
50 50 50 48 39 29 10 6 5 16 17 6 6 6 6 5 14 15 11 10 10 6 7 2 4 7 10 8 10 11 2 3 9 7 8 6 6 6 19 11 5 22 22 15
49 49 48 47 40 28 12 4 2 11 15 12 4 5 6 7 11 6 7 9 4 5 5 6 1 7 7 31 10 11 6 5 4 6 12 12 15 14 15 29 20 28 25 27
48 49 47 47 41 29 10 10 6 5 4 7 6 2 4 6 8 7 17 4 14 4 5 7 5 6 15 18 1 9 6 12 9 16 19 9 14 22 16 29 26 20 24 24
46 49 51 46 42 27 30 8 4 5 3 3 2 3 2 4 7 5 4 6 16 6 5 4 7 8 7 11 7 12 2 11 5 15 11 17 22 13 16 24 26 19 23 27
42 46 49 48 46 38 22 18 13 4 4 2 2 2 2 2 9 6 4 11 13 15 9 16 32 35 37 33 17 14 8 8 8 16 9 22 20 6 11 8 7 7 11 10
36 41 44 46 46 44 36 30 12 6 2 3 1 3 7 10 6 9 15 24 9 7 37 43 28 27 36 34 37 33 18 10 7 15 14 20 4 8 3 5 2 3 8 17
31 34 37 39 40 38 34 32 21 9 4 3 6 4 6 15 13 10 13 13 7 29 18 8 9 5 7 9 10 15 33 15 10 10 15 15 15 11 8 6 6 3 9 17
26 28 31 33 33 33 31 27 26 11 4 4 6 5 4 5 6 7 7 10 20 9 4 5 6 6 2 7 5 10 15 11 8 5 15 16 6 9 5 15 12 4 9 14
26 26 28 29 28 30 30 24 23 14 6 8 6 8 4 5 4 6 9 13 8 6 4 7 9 9 4 8 9 7 7 6 18 16 13 14 4 19 5 13 7 11 15 20
24 24 25 27 25 26 27 24 24 20 10 28 16 15 14 10 8 6 7 12 5 4 5 5 3 6 3 7 7 6 8 7 8 5 10 19 5 16 6 13 14 31 19 21
25 24 24 25 26 26 27 26 28 28 19 24 42 46 44 45 30 18 10 6 4 4 2 4 4 6 6 6 8 5 9 10 5 10 5 5 12 14 12 14 24 20 28 31
26 24 24 25 27 28 28 28 30 32 16 27 14 4 5 3 7 19 13 10 11 4 2 4 3 12 4 10 13 12 8 6 7 5 7 13 9 10 11 14 20 39 31 36
26 25 26 26 26 28 30 32 31 22 11 8 8 10 15 22 36 36 30 34 13 10 8 8 8 9 15 9 10 11 10 9 8 12 20 22 14 14 10 22 28 40 30 30
31 27 26 26 27 30 30 34 23 5 8 9 20 42 11 4 9 16 23 39 36 19 10 10 10 11 9 15 8 23 27 27 19 24 26 14 21 31 24 27 28 36 34 40
35 34 30 25 27 29 29 10 5 4 12 13 8 10 14 10 9 5 12 25 28 19 14 13 13 31 10 13 20 23 47 57 54 54 56 48 52 35 35 38 36 36 40 39
44 41 35 33 30 28 14 11 13 14 13 8 15 10 6 10 5 5 7 16 18 16 12 14 18 26 24 21 37 33 36 42 51 61 53 42 50 31 30 42 52 40 37 36
54 49 44 39 34 35 27 24 25 23 11 8 7 9 12 2 4 5 10 9 12 18 15 10 12 18 18 18 34 44 50 64 70 60 56 60 52 43 46 54 36 33 34 35
51 50 44 32 24 15 12 13 11 16 12 7 8 6 6 8 4 7 6 6 7 3 8 8 6 10 13 16 21 28 29 30 45 56 66 73 68 59 53 36 34 33 36 37
44 44 16 12 11 15 12 6 6 11 12 12 12 10 8 5 4 2 7 2 5 6 7 5 8 13 34 12 16 21 29 30 26 36 43 44 49 43 36 33 29 29 34 39
47 21 16 18 23 17 8 7 8 11 9 15 15 27 13 6 7 5 6 4 4 7 5 6 8 8 5 3 13 17 21 22 21 21 21 21 21 27 22 28 28 32 34 40
26 23 26 23 13 8 6 7 6 11 9 13 12 13 21 8 11 8 7 6 5 13 4 7 8 6 15 5 10 22 25 25 26 24 23 23 20 19 22 29 29 31 37 47
38 12 14 13 11 8 13 17 10 9 12 17 17 8 10 9 10 9 6 9 12 11 8 8 8 20 17 9 9 28 33 32 31 32 26 25 27 28 28 32 35 40 48 48
11 15 12 11 10 13 14 11 7 14 11 15 16 6 10 10 8 7 9 9 7 9 11 13 7 23 4 8 12 27 43 52 45 39 35 31 28 30 32 37 43 45 53 48
14 14 11 15 19 10 9 19 9 11 11 15 4 5 6 6 8 8 8 9 13 13 11 6 11 21 12 22 30 31 49 55 52 45 41 39 36 33 39 40 41 45 51 41
15 15 8 12 8 17 20 19 19 23 21 11 5 5 5 13 8 12 17 9 16 9 9 12 20 10 28 51 59 67 88 82 74 60 48 45 42 38 45 46 42 47 35 30
12 14 30 20 13 13 11 21 22 28 17 8 7 10 19 3 9 11 11 14 20 12 17 28 17 38 61 76 91 98 100 94 85 61 47 46 42 43 43 43 40 33 23 16
Wind_Direction_500mb
9 8 7 7 9 18 32 50 64 4 19 49 40 29 334 334 333 12 18 360 34 39 29 37 90 51 344 353 339 350 11 242 265 260 32 315 278 240 232 237 223 244 273 249
11 11 10 9 9 13 29 63 50 22 26 66 36 332 353 318 355 17 21 43 26 28 40 57 52 354 336 347 336 351 154 254 284 267 135 132 252 232 235 229 245 228 244 248
10 14 13 12 12 14 25 47 57 29 58 72 54 3 13 356 3 59 20 34 60 28 26 20 360 332 330 330 329 345 218 210 263 293 298 302 282 264 242 242 234 242 239 256
10 13 18 17 15 20 43 45 66 50 29 56 44 333 334 342 6 18 21 85 39 353 315 339 359 317 319 308 7 1 325 266 206 273 276 227 262 266 260 228 244 230 264 210
10 11 14 23 23 27 47 63 37 29 90 325 253 9 66 344 334 305 9 38 343 332 255 203 278 307 280 277 290 313 342 280 231 285 217 268 293 274 244 238 243 253 265 274
9 13 14 19 26 34 53 37 25 43 2 29 244 118 348 296 345 240 248 23 319 290 275 297 283 270 262 257 274 277 278 271 252 267 313 308 265 337 272 235 227 232 247 300
7 11 15 18 22 28 37 34 33 17 43 300 297 201 315 284 289 282 288 309 252 310 308 303 278 251 252 253 251 236 246 250 271 275 299 247 132 96 263 260 100 338 307 316
0 7 11 14 18 22 22 27 31 18 317 277 287 219 258 295 292 260 273 291 287 312 305 280 289 248 245 226 223 229 222 216 242 251 236 298 270 190 174 236 205 332 336 338
350 356 4 8 10 12 14 17 18 11 333 194 275 294 285 306 303 296 258 298 313 315 270 250 255 255 274 262 257 67 161 209 235 200 238 260 325 45 50 145 235 84 2 352
344 345 350 358 1 3 4 6 7 4 298 269 235 237 264 207 218 268 296 338 324 353 220 230 240 248 284 245 232 205 194 182 219 224 247 254 347 340 354 199 52 1 357 349
333 337 341 347 353 356 356 351 351 353 290 287 255 234 229 230 209 260 323 299 200 255 230 250 239 250 230 270 266 255 246 237 217 191 228 251 24 119 216 321 20 313 333 326
317 324 330 335 341 346 346 343 337 330 291 273 289 281 267 253 255 259 242 289 288 269 228 223 283 258 246 268 258 182 247 229 272 229 262 16 337 321 305 297 281 314 319 322
302 312 322 327 330 334 337 336 335 337 311 307 309 292 196 172 244 211 225 239 215 213 229 308 287 254 235 243 238 256 236 185 244 271 244 228 297 297 311 297 314 337 320 335
290 295 305 313 320 327 329 329 329 331 304 293 279 281 252 266 288 252 245 235 220 264 282 280 259 246 208 238 275 253 276 168 239 251 264 276 261 227 286 306 313 323 341 339
282 284 293 300 309 320 321 316 309 301 353 292 282 298 269 75 259 266 247 236 239 258 251 225 240 247 248 237 265 242 228 243 241 254 266 253 254 300 291 298 302 316 303 313
274 277 277 283 302 313 325 314 289 266 349 322 299 282 265 243 290 273 237 225 224 216 201 220 228 235 240 253 254 250 251 247 249 255 259 265 279 280 289 296 298 301 299 297
265 269 275 273 279 287 280 263 281 273 307 310 293 287 261 300 259 277 236 218 233 214 230 228 242 242 213 253 262 263 272 266 253 257 260 258 255 257 292 302 303 302 301 294
256 258 258 261 272 282 281 276 258 250 253 250 274 279 305 311 265 266 226 233 225 224 234 231 236 260 224 252 258 256 259 246 254 253 255 260 260 272 290 299 283 289 287 297
251 251 250 253 262 248 227 211 210 198 205 264 230 267 294 324 275 282 279 262 260 236 247 240 258 262 233 260 284 288 281 277 278 272 266 260 257 272 281 276 278 273 282 294
233 237 225 214 199 180 164 197 205 189 214 230 248 219 259 295 329 294 293 259 276 282 251 265 236 252 272 283 299 304 297 292 289 285 271 256 251 253 257 270 270 273 280 292
212 201 199 172 163 164 191 191 203 187 235 218 234 217 233 252 241 259 240 296 259 263 254 255 235 237 160 337 334 337 330 324 313 289 287 279 262 242 256 267 279 288 291 289
204 166 142 150 177 167 193 210 189 215 239 204 206 214 206 234 221 229 212 251 240 252 323 249 253 181 169 163 16 3 354 345 346 334 310 290 278 263 262 270 278 292 294 290
144 144 152 154 161 187 205 194 203 215 205 202 188 181 181 186 208 233 227 235 240 303 238 241 247 168 174 180 17 359 351 342 335 326 322 305 281 264 264 271 280 296 300 293
179 151 172 207 186 227 201 209 189 204 198 178 172 162 196 187 195 225 240 230 237 246 230 232 212 194 193 258 311 339 337 326 319 319 314 303 297 267 262 269 274 295 300 294
156 173 215 214 231 230 209 209 213 201 176 148 152 218 219 202 244 220 245 231 238 232 230 210 160 145 259 297 305 316 322 320 310 308 306 299 292 282 269 271 290 294 297 288
171 207 220 218 235 235 219 211 219 219 216 236 195 220 231 229 229 210 216 232 229 233 219 207 173 204 278 285 290 291 299 300 293 296 288 291 287 284 278 290 290 296 290 278
212 231 222 222 248 235 226 217 212 210 169 190 178 212 220 194 233 226 218 226 245 249 215 202 269 289 287 285 282 278 276 273 272 273 276 274 279 282 283 284 296 292 268 231
Wind_Speed_850mb
51 51 51 47 36 22 10 8 4 16 21 10 6 5 10 11 11 13 3 2 8 7 11 5 5 6 5 18 10 10 3 3 10 12 1 9 15 27 27 18 20 6 9 17
50 50 50 48 39 29 10 6 5 16 17 6 6 6 6 5 14 15 11 10 10 6 7 2 4 7 10 8 10 11 2 3 9 7 8 6 6 6 19 11 5 22 22 15
49 49 48 47 40 28 12 4 2 11 15 12 4 5 6 7 11 6 7 9 4 5 5 6 1 7 7 31 10 11 6 5 4 6 12 12 15 14 15 29 20 28 25 27
48 49 47 47 41 29 10 10 6 5 4 7 6 2 4 6 8 7 17 4 14 4 5 7 5 6 15 18 1 9 6 12 9 16 19 9 14 22 16 29 26 20 24 24
46 49 51 46 42 27 30 8 4 5 3 3 2 3 2 4 7 5 4 6 16 6 5 4 7 8 7 11 7 12 2 11 5 15 11 17 22 13 16 24 26 19 23 27
42 46 49 48 46 38 22 18 13 4 4 2 2 2 2 2 9 6 4 11 13 15 9 16 32 35 37 33 17 14 8 8 8 16 9 22 20 6 11 8 7 7 11 10
36 41 44 46 46 44 36 30 12 6 2 3 1 3 7 10 6 9 15 24 9 7 37 43 28 27 36 34 37 33 18 10 7 15 14 20 4 8 3 5 2 3 8 17
31 34 37 39 40 38 34 32 21 9 4 3 6 4 6 15 13 10 13 13 7 29 18 8 9 5 7 9 10 15 33 15 10 10 15 15 15 11 8 6 6 3 9 17
26 28 31 33 33 33 31 27 26 11 4 4 6 5 4 5 6 7 7 10 20 9 4 5 6 6 2 7 5 10 15 11 8 5 15 16 6 9 5 15 12 4 9 14
26 26 28 29 28 30 30 24 23 14 6 8 6 8 4 5 4 6 9 13 8 6 4 7 9 9 4 8 9 7 7 6 18 16 13 14 4 19 5 13 7 11 15 20
24 24 25 27 25 26 27 24 24 20 10 28 16 15 14 10 8 6 7 12 5 4 5 5 3 6 3 7 7 6 8 7 8 5 10 19 5 16 6 13 14 31 19 21
25 24 24 25 26 26 27 26 28 28 19 24 42 46 44 45 30 18 10 6 4 4 2 4 4 6 6 6 8 5 9 10 5 10 5 5 12 14 12 14 24 20 28 31
26 24 24 25 27 28 28 28 30 32 16 27 14 4 5 3 7 19 13 10 11 4 2 4 3 12 4 10 13 12 8 6 7 5 7 13 9 10 11 14 20 39 31 36
26 25 26 26 26 28 30 32 31 22 11 8 8 10 15 22 36 36 30 34 13 10 8 8 8 9 15 9 10 11 10 9 8 12 20 22 14 14 10 22 28 40 30 30
31 27 26 26 27 30 30 34 23 5 8 9 20 42 11 4 9 16 23 39 36 19 10 10 10 11 9 15 8 23 27 27 19 24 26 14 21 31 24 27 28 36 34 40
35 34 30 25 27 29 29 10 5 4 12 13 8 10 14 10 9 5 12 25 28 19 14 13 13 31 10 13 20 23 47 57 54 54 56 48 52 35 35 38 36 36 40 39
44 41 35 33 30 28 14 11 13 14 13 8 15 10 6 10 5 5 7 16 18 16 12 14 18 26 24 21 37 33 36 42 51 61 53 42 50 31 30 42 52 40 37 36
54 49 44 39 34 35 27 24 25 23 11 8 7 9 12 2 4 5 10 9 12 18 15 10 12 18 18 18 34 44 50 64 70 60 56 60 52 43 46 54 36 33 34 35
51 50 44 32 24 15 12 13 11 16 12 7 8 6 6 8 4 7 6 6 7 3 8 8 6 10 13 16 21 28 29 30 45 56 66 73 68 59 53 36 34 33 36 37
44 44 16 12 11 15 12 6 6 11 12 12 12 10 8 5 4 2 7 2 5 6 7 5 8 13 34 12 16 21 29 30 26 36 43 44 49 43 36 33 29 29 34 39
47 21 16 18 23 17 8 7 8 11 9 15 15 27 13 6 7 5 6 4 4 7 5 6 8 8 5 3 13 17 21 22 21 21 21 21 21 27 22 28 28 32 34 40
26 23 26 23 13 8 6 7 6 11 9 13 12 13 21 8 11 8 7 6 5 13 4 7 8 6 15 5 10 22 25 25 26 24 23 23 20 19 22 29 29 31 37 47
38 12 14 13 11 8 13 17 10 9 12 17 17 8 10 9 10 9 6 9 12 11 8 8 8 20 17 9 9 28 33 32 31 32 26 25 27 28 28 32 35 40 48 48
11 15 12 11 10 13 14 11 7 14 11 15 16 6 10 10 8 7 9 9 7 9 11 13 7 23 4 8 12 27 43 52 45 39 35 31 28 30 32 37 43 45 53 48
14 14 11 15 19 10 9 19 9 11 11 15 4 5 6 6 8 8 8 9 13 13 11 6 11 21 12 22 30 31 49 55 52 45 41 39 36 33 39 40 41 45 51 41
15 15 8 12 8 17 20 19 19 23 21 11 5 5 5 13 8 12 17 9 16 9 9 12 20 10 28 51 59 67 88 82 74 60 48 45 42 38 45 46 42 47 35 30
12 14 30 20 13 13 11 21 22 28 17 8 7 10 19 3 9 11 11 14 20 12 17 28 17 38 61 76 91 98 100 94 85 61 47 46 42 43 43 43 40 33 23 16
Wind_Direction_850mb
9 8 7 7 9 18 32 50 64 4 19 49 40 29 334 334 333 12 18 360 34 39 29 37 90 51 344 353 339 350 11 242 265 260 32 315 278 240 232 237 223 244 273 249
11 11 10 9 9 13 29 63 50 22 26 66 36 332 353 318 355 17 21 43 26 28 40 57 52 354 336 347 336 351 154 254 284 267 135 132 252 232 235 229 245 228 244 248
10 14 13 12 12 14 25 47 57 29 58 72 54 3 13 356 3 59 20 34 60 28 26 20 360 332 330 330 329 345 218 210 263 293 298 302 282 264 242 242 234 242 239 256
10 13 18 17 15 20 43 45 66 50 29 56 44 333 334 342 6 18 21 85 39 353 315 339 359 317 319 308 7 1 325 266 206 273 276 227 262 266 260 228 244 230 264 210
10 11 14 23 23 27 47 63 37 29 90 325 253 9 66 344 334 305 9 38 343 332 255 203 278 307 280 277 290 313 342 280 231 285 217 268 293 274 244 238 243 253 265 274
9 13 14 19 26 34 53 37 25 43 2 29 244 118 348 296 345 240 248 23 319 290 275 297 283 270 262 257 274 277 278 271 252 267 313 308 265 337 272 235 227 232 247 300
7 11 15 18 22 28 37 34 33 17 43 300 297 201 315 284 289 282 288 309 252 310 308 303 278 251 252 253 251 236 246 250 271 275 299 247 132 96 263 260 100 338 307 316
0 7 11 14 18 22 22 27 31 18 317 277 287 219 258 295 292 260 273 291 287 312 305 280 289 248 245 226 223 229 222 216 242 251 236 298 270 190 174 236 205 332 336 338
350 356 4 8 10 12 14 17 18 11 333 194 275 294 285 306 303 296 258 298 313 315 270 250 255 255 274 262 257 67 161 209 235 200 238 260 325 45 50 145 235 84 2 352
344 345 350 358 1 3 4 6 7 4 298 269 235 237 264 207 218 268 296 338 324 353 220 230 240 248 284 245 232 205 194 182 219 224 247 254 347 340 354 199 52 1 357 349
333 337 341 347 353 356 356 351 351 353 290 287 255 234 229 230 209 260 323 299 200 255 230 250 239 250 230 270 266 255 246 237 217 191 228 251 24 119 216 321 20 313 333 326
317 324 330 335 341 346 346 343 337 330 291 273 289 281 267 253 255 259 242 289 288 269 228 223 283 258 246 268 258 182 247 229 272 229 262 16 337 321 305 297 281 314 319 322
302 312 322 327 330 334 337 336 335 337 311 307 309 292 196 172 244 211 225 239 215 213 229 308 287 254 235 243 238 256 236 185 244 271 244 228 297 297 311 297 314 337 320 335
290 295 305 313 320 327 329 329 329 331 304 293 279 281 252 266 288 252 245 235 220 264 282 280 259 246 208 238 275 253 276 168 239 251 264 276 261 227 286 306 313 323 341 339
282 284 293 300 309 320 321 316 309 301 353 292 282 298 269 75 259 266 247 236 239 258 251 225 240 247 248 237 265 242 228 243 241 254 266 253 254 300 291 298 302 316 303 313
274 277 277 283 302 313 325 314 289 266 349 322 299 282 265 243 290 273 237 225 224 216 201 220 228 235 240 253 254 250 251 247 249 255 259 265 279 280 289 296 298 301 299 297
265 269 275 273 279 287 280 263 281 273 307 310 293 287 261 300 259 277 236 218 233 214 230 228 242 242 213 253 262 263 272 266 253 257 260 258 255 257 292 302 303 302 301 294
256 258 258 261 272 282 281 276 258 250 253 250 274 279 305 311 265 266 226 233 225 224 234 231 236 260 224 252 258 256 259 246 254 253 255 260 260 272 290 299 283 289 287 297
251 251 250 253 262 248 227 211 210 198 205 264 230 267 294 324 275 282 279 262 260 236 247 240 258 262 233 260 284 288 281 277 278 272 266 260 257 272 281 276 278 273 282 294
233 237 225 214 199 180 164 197 205 189 214 230 248 219 259 295 329 294 293 259 276 282 251 265 236 252 272 283 299 304 297 292 289 285 271 256 251 253 257 270 270 273 280 292
212 201 199 172 163 164 191 191 203 187 235 218 234 217 233 252 241 259 240 296 259 263 254 255 235 237 160 337 334 337 330 324 313 289 287 279 262 242 256 267 279 288 291 289
204 166 142 150 177 167 193 210 189 215 239 204 206 214 206 234 221 229 212 251 240 252 323 249 253 181 169 163 16 3 354 345 346 334 310 290 278 263 262 270 278 292 294 290
144 144 152 154 161 187 205 194 203 215 205 202 188 181 181 186 208 233 227 235 240 303 238 241 247 168 174 180 17 359 351 342 335 326 322 305 281 264 264 271 280 296 300 293
179 151 172 207 186 227 201 209 189 204 198 178 172 162 196 187 195 225 240 230 237 246 230 232 212 194 193 258 311 339 337 326 319 319 314 303 297 267 262 269 274 295 300 294
156 173 215 214 231 230 209 209 213 201 176 148 152 218 219 202 244 220 245 231 238 232 230 210 160 145 259 297 305 316 322 320 310 308 306 299 292 282 269 271 290 294 297 288
171 207 220 218 235 235 219 211 219 219 216 236 195 220 231 229 229 210 216 232 229 233 219 207 173 204 278 285 290 291 299 300 293 296 288 291 287 284 278 290 290 296 290 278
212 231 222 222 248 235 226 217 212 210 169 190 178 212 220 194 233 226 218 226 245 249 215 202 269 289 287 285 282 278 276 273 272 273 276 274 279 282 283 284 296 292 268 231